sat.trackr.live / text

‹ back to catalog

STARLINK-5556

NORAD 55385 · 2023-013BG

PAYLOAD ACTIVE UNKNOWN

§ Identity

Operator
Country
US
Launch date
2023-01-26
Launch site
AFETR
Launch vehicle
Mass (kg)
RCS (m²)

Purposes: comms

External: N2YO · Heavens-Above · Gunter

§ Orbital elements

Epoch: 2026-05-25T00:18:56.452032Z

Period
94.27 min
Inclination
43.0040°
Eccentricity
0.0002608
Mean motion
15.27605775 rev/d
Perigee alt
481.2 km
Apogee alt
484.8 km
Semi-major
6,861.1 km
B*
-2.8440e-4
RAAN
247.2609°
Arg perigee
265.9411°
Mean anomaly
94.1143°
Rev number
18,317

§ Raw data

STARLINK-55561 55385U 23013BG  26145.01315338 -.00008087  00000+0 -28440-3 0  99922 55385  43.0040 247.2609 0002608 265.9411  94.1143 15.27605775183170

JSON: /api/v1/satellites/55385 · /tle

For live sub-satellite position, see the globe view (requires WebGL).

§ Visibility from observer

Set your observer location to see the next 7 days of passes ≥ 10°. The values pass through the URL so the page stays shareable.

No JS? Fill the form by hand. The geolocation button needs JavaScript.